sat.trackr.live / text

‹ back to catalog

KUIPER-00246

NORAD 67151 · 2025-301U

PAYLOAD ACTIVE UNKNOWN

§ Identity

Operator
Country
US
Launch date
2025-12-16
Launch site
AFETR
Launch vehicle
Mass (kg)
RCS (m²)

External: N2YO · Heavens-Above · Gunter

§ Orbital elements

Epoch: 2026-09-20T08:16:33.875328Z

Period
97.30 min
Inclination
51.9023°
Eccentricity
0.0000419
Mean motion
14.79927395 rev/d
Perigee alt
629.3 km
Apogee alt
629.8 km
Semi-major
7,007.7 km
B*
6.4209e-6
RAAN
287.3489°
Arg perigee
74.8234°
Mean anomaly
285.2775°
Rev number
4,254

§ Raw data

KUIPER-002461 67151U 25301U   26263.34483652 -.00000172  00000+0  64209-5 0  99912 67151  51.9023 287.3489 0000419  74.8234 285.2775 14.79927395 42542

JSON: /api/v1/satellites/67151 · /tle

For live sub-satellite position, see the globe view (requires WebGL).

§ Visibility from observer

Set your observer location to see the next 7 days of passes ≥ 10°. The values pass through the URL so the page stays shareable.

No JS? Fill the form by hand. The geolocation button needs JavaScript.